Year,Month,Day,Hour,Minute,Value (Times are PST for windgust in km/hr)
2014,10,21,00,00,1.60
2014,10,21,00,01,1.60
2014,10,21,00,02,1.60
2014,10,21,00,03,1.60
2014,10,21,00,04,1.60
2014,10,21,00,05,1.60
2014,10,21,00,06,1.60
2014,10,21,00,08,1.60
2014,10,21,00,11,1.60
2014,10,21,00,13,1.60
2014,10,21,00,22,1.60
2014,10,21,00,23,1.60
2014,10,21,00,24,1.60
2014,10,21,00,29,1.60
2014,10,21,00,30,3.20
2014,10,21,00,31,1.60
2014,10,21,00,32,1.60
2014,10,21,00,33,1.60
2014,10,21,00,34,1.60
2014,10,21,00,35,1.60
2014,10,21,00,40,1.60
2014,10,21,00,41,1.60
2014,10,21,00,42,1.60
2014,10,21,00,43,1.60
2014,10,21,00,44,1.60
2014,10,21,00,45,1.60
2014,10,21,00,46,1.60
2014,10,21,00,47,1.60
2014,10,21,00,48,3.20
2014,10,21,00,49,3.20
2014,10,21,00,50,3.20
2014,10,21,00,51,3.20
2014,10,21,00,52,3.20
2014,10,21,00,53,1.60
2014,10,21,00,56,1.60
2014,10,21,00,57,3.20
2014,10,21,00,58,1.60
2014,10,21,00,59,1.60
2014,10,21,01,03,1.60
2014,10,21,01,04,1.60
2014,10,21,01,05,1.60
2014,10,21,01,06,1.60
2014,10,21,01,08,1.60
2014,10,21,01,09,1.60
2014,10,21,01,10,1.60
2014,10,21,01,11,1.60
2014,10,21,01,12,1.60
2014,10,21,01,13,1.60
2014,10,21,01,14,1.60
2014,10,21,01,15,3.20
2014,10,21,01,16,1.60
2014,10,21,01,17,1.60
2014,10,21,01,18,1.60
2014,10,21,01,19,1.60
2014,10,21,01,20,1.60
2014,10,21,01,21,1.60
2014,10,21,01,22,1.60
2014,10,21,01,24,1.60
2014,10,21,01,40,1.60
2014,10,21,01,42,1.60
2014,10,21,01,43,1.60
2014,10,21,01,44,3.20
2014,10,21,01,45,1.60
2014,10,21,01,47,1.60
2014,10,21,01,48,1.60
2014,10,21,01,49,1.60
2014,10,21,02,00,1.60
2014,10,21,02,01,3.20
2014,10,21,02,02,3.20
2014,10,21,02,03,3.20
2014,10,21,02,04,3.20
2014,10,21,02,05,3.20
2014,10,21,02,06,1.60
2014,10,21,02,22,1.60
2014,10,21,02,23,3.20
2014,10,21,02,24,3.20
2014,10,21,02,25,3.20
2014,10,21,02,26,3.20
2014,10,21,02,27,3.20
2014,10,21,02,28,3.20
2014,10,21,02,29,4.80
2014,10,21,02,30,1.60
2014,10,21,02,31,1.60
2014,10,21,02,37,1.60
2014,10,21,02,38,3.20
2014,10,21,02,39,3.20
2014,10,21,02,40,3.20
2014,10,21,02,41,1.60
2014,10,21,02,42,1.60
2014,10,21,02,46,1.60
2014,10,21,02,47,1.60
2014,10,21,02,48,1.60
2014,10,21,03,00,1.60
2014,10,21,03,05,1.60
2014,10,21,03,06,3.20
2014,10,21,03,07,3.20
2014,10,21,03,08,3.20
2014,10,21,03,09,3.20
2014,10,21,03,10,3.20
2014,10,21,03,11,3.20
2014,10,21,03,12,3.20
2014,10,21,03,25,1.60
2014,10,21,03,26,3.20
2014,10,21,03,27,3.20
2014,10,21,03,28,3.20
2014,10,21,03,29,3.20
2014,10,21,03,30,3.20
2014,10,21,03,31,3.20
2014,10,21,03,32,1.60
2014,10,21,03,34,1.60
2014,10,21,03,35,1.60
2014,10,21,03,36,1.60
2014,10,21,03,37,3.20
2014,10,21,03,38,3.20
2014,10,21,03,39,1.60
2014,10,21,03,40,1.60
2014,10,21,03,41,1.60
2014,10,21,03,43,1.60
2014,10,21,03,44,1.60
2014,10,21,03,45,3.20
2014,10,21,03,46,3.20
2014,10,21,03,47,3.20
2014,10,21,03,48,1.60
2014,10,21,03,49,1.60
2014,10,21,03,54,1.60
2014,10,21,03,55,1.60
2014,10,21,03,56,1.60
2014,10,21,03,57,1.60
2014,10,21,03,58,1.60
2014,10,21,04,00,1.60
2014,10,21,04,01,1.60
2014,10,21,04,02,3.20
2014,10,21,04,03,3.20
2014,10,21,04,04,3.20
2014,10,21,04,05,1.60
2014,10,21,04,09,1.60
2014,10,21,04,10,1.60
2014,10,21,04,11,3.20
2014,10,21,04,12,3.20
2014,10,21,04,13,3.20
2014,10,21,04,14,3.20
2014,10,21,04,15,3.20
2014,10,21,04,16,4.80
2014,10,21,04,17,4.80
2014,10,21,04,18,3.20
2014,10,21,04,19,3.20
2014,10,21,04,20,3.20
2014,10,21,04,21,1.60
2014,10,21,04,22,1.60
2014,10,21,04,23,1.60
2014,10,21,04,24,3.20
2014,10,21,04,25,3.20
2014,10,21,04,26,3.20
2014,10,21,04,27,1.60
2014,10,21,04,28,1.60
2014,10,21,04,29,1.60
2014,10,21,04,30,3.20
2014,10,21,04,31,3.20
2014,10,21,04,32,3.20
2014,10,21,04,33,3.20
2014,10,21,04,34,4.80
2014,10,21,04,35,3.20
2014,10,21,04,36,1.60
2014,10,21,04,37,1.60
2014,10,21,04,38,1.60
2014,10,21,04,39,1.60
2014,10,21,04,40,1.60
2014,10,21,04,41,1.60
2014,10,21,04,42,1.60
2014,10,21,04,53,3.20
2014,10,21,04,54,3.20
2014,10,21,04,55,3.20
2014,10,21,04,56,1.60
2014,10,21,05,06,1.60
2014,10,21,05,07,1.60
2014,10,21,05,08,1.60
2014,10,21,05,09,3.20
2014,10,21,05,10,3.20
2014,10,21,05,11,3.20
2014,10,21,05,12,3.20
2014,10,21,05,13,3.20
2014,10,21,05,14,1.60
2014,10,21,05,15,1.60
2014,10,21,05,18,1.60
2014,10,21,05,26,1.60
2014,10,21,05,27,1.60
2014,10,21,05,28,1.60
2014,10,21,05,29,1.60
2014,10,21,05,30,1.60
2014,10,21,05,31,1.60
2014,10,21,05,32,3.20
2014,10,21,05,33,3.20
2014,10,21,05,34,1.60
2014,10,21,05,35,1.60
2014,10,21,05,36,1.60
2014,10,21,05,37,3.20
2014,10,21,05,38,3.20
2014,10,21,05,39,3.20
2014,10,21,05,40,3.20
2014,10,21,05,41,3.20
2014,10,21,05,42,1.60
2014,10,21,05,44,1.60
2014,10,21,05,45,1.60
2014,10,21,05,46,1.60
2014,10,21,05,47,1.60
2014,10,21,05,48,1.60
2014,10,21,05,49,1.60
2014,10,21,05,50,1.60
2014,10,21,05,53,1.60
2014,10,21,05,54,1.60
2014,10,21,05,57,1.60
2014,10,21,06,26,1.60
2014,10,21,06,27,3.20
2014,10,21,06,28,3.20
2014,10,21,06,29,1.60
2014,10,21,06,31,1.60
2014,10,21,06,32,3.20
2014,10,21,06,33,1.60
2014,10,21,06,34,3.20
2014,10,21,06,35,1.60
2014,10,21,06,36,1.60
2014,10,21,06,45,1.60
2014,10,21,06,46,1.60
2014,10,21,06,47,1.60
2014,10,21,06,51,1.60
2014,10,21,06,52,1.60
2014,10,21,06,53,1.60
2014,10,21,06,55,1.60
2014,10,21,06,56,1.60
2014,10,21,07,01,1.60
2014,10,21,07,03,1.60
2014,10,21,07,04,1.60
2014,10,21,07,05,1.60
2014,10,21,07,09,1.60
2014,10,21,07,10,1.60
2014,10,21,07,11,1.60
2014,10,21,07,29,1.60
2014,10,21,07,30,1.60
2014,10,21,07,31,1.60
2014,10,21,07,32,1.60
2014,10,21,07,33,1.60
2014,10,21,07,34,1.60
2014,10,21,07,35,1.60
2014,10,21,07,36,1.60
2014,10,21,07,37,3.20
2014,10,21,07,38,1.60
2014,10,21,07,39,1.60
2014,10,21,07,40,1.60
2014,10,21,07,42,3.20
2014,10,21,07,43,3.20
2014,10,21,07,44,1.60
2014,10,21,07,45,1.60
2014,10,21,07,46,3.20
2014,10,21,07,47,3.20
2014,10,21,07,48,3.20
2014,10,21,07,49,3.20
2014,10,21,07,50,3.20
2014,10,21,07,51,1.60
2014,10,21,07,52,3.20
2014,10,21,07,53,3.20
2014,10,21,07,54,1.60
2014,10,21,07,55,3.20
2014,10,21,07,56,3.20
2014,10,21,07,57,3.20
2014,10,21,07,58,1.60
2014,10,21,07,59,1.60
2014,10,21,08,00,1.60
2014,10,21,08,01,1.60
2014,10,21,08,05,1.60
2014,10,21,08,06,3.20
2014,10,21,08,07,3.20
2014,10,21,08,08,1.60
2014,10,21,08,26,1.60
2014,10,21,08,27,1.60
2014,10,21,08,28,1.60
2014,10,21,08,29,3.20
2014,10,21,08,30,1.60
2014,10,21,08,31,1.60
2014,10,21,08,32,1.60
2014,10,21,08,33,1.60
2014,10,21,08,37,1.60
2014,10,21,08,38,3.20
2014,10,21,08,39,1.60
2014,10,21,08,40,1.60
2014,10,21,08,48,1.60
2014,10,21,08,49,1.60
2014,10,21,08,50,1.60
2014,10,21,08,51,1.60
2014,10,21,08,59,1.60
2014,10,21,09,08,3.20
2014,10,21,09,09,3.20
2014,10,21,09,10,1.60
2014,10,21,09,11,1.60
2014,10,21,09,12,3.20
2014,10,21,09,13,4.80
2014,10,21,09,14,4.80
2014,10,21,09,15,3.20
2014,10,21,09,16,3.20
2014,10,21,09,17,1.60
2014,10,21,09,18,1.60
2014,10,21,09,19,3.20
2014,10,21,09,20,3.20
2014,10,21,09,21,4.80
2014,10,21,09,22,4.80
2014,10,21,09,23,4.80
2014,10,21,09,24,4.80
2014,10,21,09,25,3.20
2014,10,21,09,26,3.20
2014,10,21,09,27,1.60
2014,10,21,09,28,1.60
2014,10,21,09,29,3.20
2014,10,21,09,30,1.60
2014,10,21,09,31,1.60
2014,10,21,09,32,1.60
2014,10,21,09,33,1.60
2014,10,21,09,34,1.60
2014,10,21,09,35,1.60
2014,10,21,09,36,1.60
2014,10,21,09,37,1.60
2014,10,21,09,38,1.60
2014,10,21,09,39,3.20
2014,10,21,09,40,3.20
2014,10,21,09,41,3.20
2014,10,21,09,42,1.60
2014,10,21,09,43,4.80
2014,10,21,09,44,3.20
2014,10,21,09,45,1.60
2014,10,21,09,46,1.60
2014,10,21,09,47,3.20
2014,10,21,09,48,3.20
2014,10,21,09,49,3.20
2014,10,21,09,50,4.80
2014,10,21,09,51,3.20
2014,10,21,09,52,3.20
2014,10,21,09,53,3.20
2014,10,21,09,54,1.60
2014,10,21,09,55,3.20
2014,10,21,09,56,3.20
2014,10,21,09,57,3.20
2014,10,21,09,58,3.20
2014,10,21,09,59,3.20
2014,10,21,10,00,1.60
2014,10,21,10,01,1.60
2014,10,21,10,02,1.60
2014,10,21,10,03,3.20
2014,10,21,10,04,3.20
2014,10,21,10,05,6.40
2014,10,21,10,06,3.20
2014,10,21,10,07,3.20
2014,10,21,10,08,3.20
2014,10,21,10,09,3.20
2014,10,21,10,10,4.80
2014,10,21,10,11,3.20
2014,10,21,10,12,3.20
2014,10,21,10,13,3.20
2014,10,21,10,14,3.20
2014,10,21,10,15,3.20
2014,10,21,10,16,4.80
2014,10,21,10,17,4.80
2014,10,21,10,18,4.80
2014,10,21,10,19,4.80
2014,10,21,10,20,4.80
2014,10,21,10,21,4.80
2014,10,21,10,22,6.40
2014,10,21,10,23,6.40
2014,10,21,10,24,4.80
2014,10,21,10,25,3.20
2014,10,21,10,26,3.20
2014,10,21,10,27,4.80
2014,10,21,10,28,3.20
2014,10,21,10,29,3.20
2014,10,21,10,30,3.20
2014,10,21,10,31,4.80
2014,10,21,10,32,3.20
2014,10,21,10,33,1.60
2014,10,21,10,34,1.60
2014,10,21,10,35,1.60
2014,10,21,10,36,1.60
2014,10,21,10,37,1.60
2014,10,21,10,38,1.60
2014,10,21,10,39,1.60
2014,10,21,10,40,1.60
2014,10,21,10,41,3.20
2014,10,21,10,42,4.80
2014,10,21,10,43,4.80
2014,10,21,10,44,3.20
2014,10,21,10,45,3.20
2014,10,21,10,46,3.20
2014,10,21,10,47,4.80
2014,10,21,10,48,1.60
2014,10,21,10,49,1.60
2014,10,21,10,50,1.60
2014,10,21,10,51,4.80
2014,10,21,10,52,4.80
2014,10,21,10,53,3.20
2014,10,21,10,54,3.20
2014,10,21,10,55,4.80
2014,10,21,10,56,3.20
2014,10,21,10,57,1.60
2014,10,21,10,58,1.60
2014,10,21,10,59,1.60
2014,10,21,11,02,1.60
2014,10,21,11,03,1.60
2014,10,21,11,04,1.60
2014,10,21,11,05,1.60
2014,10,21,11,07,1.60
2014,10,21,11,08,1.60
2014,10,21,11,09,3.20
2014,10,21,11,10,4.80
2014,10,21,11,11,4.80
2014,10,21,11,12,3.20
2014,10,21,11,13,3.20
2014,10,21,11,14,1.60
2014,10,21,11,15,1.60
2014,10,21,11,16,1.60
2014,10,21,11,17,1.60
2014,10,21,11,18,3.20
2014,10,21,11,19,3.20
2014,10,21,11,20,3.20
2014,10,21,11,21,1.60
2014,10,21,11,22,4.80
2014,10,21,11,23,4.80
2014,10,21,11,24,3.20
2014,10,21,11,25,3.20
2014,10,21,11,26,3.20
2014,10,21,11,27,3.20
2014,10,21,11,28,4.80
2014,10,21,11,29,4.80
2014,10,21,11,30,3.20
2014,10,21,11,31,3.20
2014,10,21,11,32,3.20
2014,10,21,11,33,3.20
2014,10,21,11,34,3.20
2014,10,21,11,35,1.60
2014,10,21,11,36,4.80
2014,10,21,11,37,6.40
2014,10,21,11,38,4.80
2014,10,21,11,39,4.80
2014,10,21,11,40,3.20
2014,10,21,11,41,3.20
2014,10,21,11,42,1.60
2014,10,21,11,43,3.20
2014,10,21,11,44,6.40
2014,10,21,11,45,6.40
2014,10,21,11,46,6.40
2014,10,21,11,47,6.40
2014,10,21,11,48,4.80
2014,10,21,11,49,4.80
2014,10,21,11,50,4.80
2014,10,21,11,51,3.20
2014,10,21,11,52,3.20
2014,10,21,11,53,3.20
2014,10,21,11,54,4.80
2014,10,21,11,55,4.80
2014,10,21,11,56,4.80
2014,10,21,11,57,3.20
2014,10,21,11,58,4.80
2014,10,21,11,59,6.40
2014,10,21,12,00,3.20
2014,10,21,12,01,3.20
2014,10,21,12,02,3.20
2014,10,21,12,03,3.20
2014,10,21,12,04,1.60
2014,10,21,12,05,1.60
2014,10,21,12,06,1.60
2014,10,21,12,07,3.20
2014,10,21,12,08,3.20
2014,10,21,12,09,3.20
2014,10,21,12,10,1.60
2014,10,21,12,11,1.60
2014,10,21,12,12,1.60
2014,10,21,12,13,1.60
2014,10,21,12,14,1.60
2014,10,21,12,15,1.60
2014,10,21,12,16,1.60
2014,10,21,12,17,1.60
2014,10,21,12,18,1.60
2014,10,21,12,19,3.20
2014,10,21,12,20,3.20
2014,10,21,12,21,3.20
2014,10,21,12,22,1.60
2014,10,21,12,23,6.40
2014,10,21,12,24,6.40
2014,10,21,12,25,9.60
2014,10,21,12,26,9.60
2014,10,21,12,27,8.10
2014,10,21,12,28,8.10
2014,10,21,12,29,6.40
2014,10,21,12,30,3.20
2014,10,21,12,31,4.80
2014,10,21,12,32,8.10
2014,10,21,12,33,6.40
2014,10,21,12,34,4.80
2014,10,21,12,35,3.20
2014,10,21,12,36,1.60
2014,10,21,12,37,3.20
2014,10,21,12,38,3.20
2014,10,21,12,39,4.80
2014,10,21,12,40,4.80
2014,10,21,12,41,3.20
2014,10,21,12,42,3.20
2014,10,21,12,43,1.60
2014,10,21,12,44,1.60
2014,10,21,12,45,4.80
2014,10,21,12,46,4.80
2014,10,21,12,47,4.80
2014,10,21,12,48,3.20
2014,10,21,12,49,3.20
2014,10,21,12,50,4.80
2014,10,21,12,51,3.20
2014,10,21,12,52,3.20
2014,10,21,12,53,3.20
2014,10,21,12,54,4.80
2014,10,21,12,55,3.20
2014,10,21,12,56,1.60
2014,10,21,12,57,1.60
2014,10,21,12,58,3.20
2014,10,21,12,59,4.80
2014,10,21,13,00,3.20
2014,10,21,13,01,1.60
2014,10,21,13,02,1.60
2014,10,21,13,03,6.40
2014,10,21,13,04,6.40
2014,10,21,13,05,4.80
2014,10,21,13,06,1.60
2014,10,21,13,07,3.20
2014,10,21,13,08,3.20
2014,10,21,13,09,4.80
2014,10,21,13,10,3.20
2014,10,21,13,11,1.60
2014,10,21,13,12,3.20
2014,10,21,13,13,4.80
2014,10,21,13,14,4.80
2014,10,21,13,15,3.20
2014,10,21,13,16,3.20
2014,10,21,13,17,3.20
2014,10,21,13,18,1.60
2014,10,21,13,19,3.20
2014,10,21,13,20,3.20
2014,10,21,13,21,8.10
2014,10,21,13,22,6.40
2014,10,21,13,23,6.40
2014,10,21,13,24,6.40
2014,10,21,13,25,3.20
2014,10,21,13,26,3.20
2014,10,21,13,27,3.20
2014,10,21,13,28,4.80
2014,10,21,13,29,6.40
2014,10,21,13,30,4.80
2014,10,21,13,31,3.20
2014,10,21,13,32,3.20
2014,10,21,13,33,3.20
2014,10,21,13,34,3.20
2014,10,21,13,35,1.60
2014,10,21,13,36,1.60
2014,10,21,13,37,8.10
2014,10,21,13,38,4.80
2014,10,21,13,39,4.80
2014,10,21,13,40,1.60
2014,10,21,13,41,4.80
2014,10,21,13,42,3.20
2014,10,21,13,43,6.40
2014,10,21,13,44,3.20
2014,10,21,13,45,1.60
2014,10,21,13,46,1.60
2014,10,21,13,47,1.60
2014,10,21,13,48,1.60
2014,10,21,13,49,4.80
2014,10,21,13,50,6.40
2014,10,21,13,51,4.80
2014,10,21,13,52,1.60
2014,10,21,13,53,3.20
2014,10,21,13,54,3.20
2014,10,21,13,55,1.60
2014,10,21,13,56,3.20
2014,10,21,13,57,3.20
2014,10,21,13,58,1.60
2014,10,21,13,59,4.80
2014,10,21,14,00,1.60
2014,10,21,14,01,1.60
2014,10,21,14,02,1.60
2014,10,21,14,03,3.20
2014,10,21,14,04,1.60
2014,10,21,14,05,4.80
2014,10,21,14,06,4.80
2014,10,21,14,07,3.20
2014,10,21,14,08,3.20
2014,10,21,14,09,4.80
2014,10,21,14,10,3.20
2014,10,21,14,11,3.20
2014,10,21,14,12,3.20
2014,10,21,14,13,4.80
2014,10,21,14,14,3.20
2014,10,21,14,15,4.80
2014,10,21,14,16,4.80
2014,10,21,14,17,3.20
2014,10,21,14,18,3.20
2014,10,21,14,19,1.60
2014,10,21,14,20,1.60
2014,10,21,14,21,3.20
2014,10,21,14,22,1.60
2014,10,21,14,23,3.20
2014,10,21,14,24,3.20
2014,10,21,14,25,3.20
2014,10,21,14,26,3.20
2014,10,21,14,27,3.20
2014,10,21,14,28,1.60
2014,10,21,14,29,3.20
2014,10,21,14,30,1.60
2014,10,21,14,32,3.20
2014,10,21,14,33,3.20
2014,10,21,14,34,1.60
2014,10,21,14,35,1.60
2014,10,21,14,36,1.60
2014,10,21,14,37,4.80
2014,10,21,14,38,4.80
2014,10,21,14,39,4.80
2014,10,21,14,40,4.80
2014,10,21,14,41,3.20
2014,10,21,14,42,4.80
2014,10,21,14,43,4.80
2014,10,21,14,44,3.20
2014,10,21,14,45,3.20
2014,10,21,14,46,4.80
2014,10,21,14,47,3.20
2014,10,21,14,48,3.20
2014,10,21,14,49,3.20
2014,10,21,14,51,3.20
2014,10,21,14,52,1.60
2014,10,21,14,53,3.20
2014,10,21,14,54,1.60
2014,10,21,14,55,1.60
2014,10,21,14,56,4.80
2014,10,21,14,57,3.20
2014,10,21,14,58,3.20
2014,10,21,14,59,4.80
2014,10,21,15,00,3.20
2014,10,21,15,01,3.20
2014,10,21,15,02,4.80
2014,10,21,15,03,4.80
2014,10,21,15,04,3.20
2014,10,21,15,05,6.40
2014,10,21,15,06,6.40
2014,10,21,15,07,3.20
2014,10,21,15,08,3.20
2014,10,21,15,09,3.20
2014,10,21,15,10,3.20
2014,10,21,15,11,3.20
2014,10,21,15,12,4.80
2014,10,21,15,13,3.20
2014,10,21,15,14,1.60
2014,10,21,15,15,3.20
2014,10,21,15,16,1.60
2014,10,21,15,17,1.60
2014,10,21,15,18,3.20
2014,10,21,15,19,1.60
2014,10,21,15,20,1.60
2014,10,21,15,21,3.20
2014,10,21,15,22,3.20
2014,10,21,15,23,1.60
2014,10,21,15,24,4.80
2014,10,21,15,25,1.60
2014,10,21,15,26,1.60
2014,10,21,15,27,3.20
2014,10,21,15,28,1.60
2014,10,21,15,29,1.60
2014,10,21,15,30,1.60
2014,10,21,15,31,3.20
2014,10,21,15,32,3.20
2014,10,21,15,33,1.60
2014,10,21,15,34,3.20
2014,10,21,15,35,3.20
2014,10,21,15,36,1.60
2014,10,21,15,37,3.20
2014,10,21,15,38,3.20
2014,10,21,15,39,3.20
2014,10,21,15,40,4.80
2014,10,21,15,41,4.80
2014,10,21,15,42,4.80
2014,10,21,15,43,3.20
2014,10,21,15,44,1.60
2014,10,21,15,45,1.60
2014,10,21,15,46,1.60
2014,10,21,15,47,1.60
2014,10,21,15,48,3.20
2014,10,21,15,49,3.20
2014,10,21,15,50,3.20
2014,10,21,15,51,3.20
2014,10,21,15,52,1.60
2014,10,21,15,54,1.60
2014,10,21,15,56,1.60
2014,10,21,15,57,1.60
2014,10,21,15,58,3.20
2014,10,21,15,59,3.20
2014,10,21,16,00,4.80
2014,10,21,16,01,4.80
2014,10,21,16,02,4.80
2014,10,21,16,03,4.80
2014,10,21,16,04,4.80
2014,10,21,16,05,3.20
2014,10,21,16,06,3.20
2014,10,21,16,07,3.20
2014,10,21,16,08,4.80
2014,10,21,16,09,3.20
2014,10,21,16,10,3.20
2014,10,21,16,11,6.40
2014,10,21,16,12,6.40
2014,10,21,16,13,6.40
2014,10,21,16,14,6.40
2014,10,21,16,15,4.80
2014,10,21,16,16,4.80
2014,10,21,16,17,4.80
2014,10,21,16,18,4.80
2014,10,21,16,19,3.20
2014,10,21,16,20,3.20
2014,10,21,16,21,3.20
2014,10,21,16,22,3.20
2014,10,21,16,23,3.20
2014,10,21,16,24,1.60
2014,10,21,16,25,1.60
2014,10,21,16,26,1.60
2014,10,21,16,27,1.60
2014,10,21,16,28,1.60
2014,10,21,16,29,1.60
2014,10,21,16,30,1.60
2014,10,21,16,31,1.60
2014,10,21,16,32,1.60
2014,10,21,16,33,1.60
2014,10,21,16,34,1.60
2014,10,21,16,38,1.60
2014,10,21,16,39,1.60
2014,10,21,16,40,3.20
2014,10,21,16,41,3.20
2014,10,21,16,42,1.60
2014,10,21,16,43,3.20
2014,10,21,16,44,1.60
2014,10,21,16,45,4.80
2014,10,21,16,46,4.80
2014,10,21,16,47,4.80
2014,10,21,16,48,4.80
2014,10,21,16,49,4.80
2014,10,21,16,50,3.20
2014,10,21,16,51,3.20
2014,10,21,16,52,1.60
2014,10,21,16,53,3.20
2014,10,21,16,54,3.20
2014,10,21,16,55,1.60
2014,10,21,16,56,1.60
2014,10,21,16,57,1.60
2014,10,21,16,58,1.60
2014,10,21,16,59,1.60
2014,10,21,17,00,3.20
2014,10,21,17,01,1.60
2014,10,21,17,02,4.80
2014,10,21,17,03,4.80
2014,10,21,17,04,1.60
2014,10,21,17,05,1.60
2014,10,21,17,06,3.20
2014,10,21,17,07,3.20
2014,10,21,17,08,3.20
2014,10,21,17,09,1.60
2014,10,21,17,10,1.60
2014,10,21,17,11,1.60
2014,10,21,17,12,3.20
2014,10,21,17,13,3.20
2014,10,21,17,14,3.20
2014,10,21,17,15,1.60
2014,10,21,17,16,1.60
2014,10,21,17,17,1.60
2014,10,21,17,18,1.60
2014,10,21,17,19,3.20
2014,10,21,17,20,3.20
2014,10,21,17,21,3.20
2014,10,21,17,22,3.20
2014,10,21,17,23,1.60
2014,10,21,17,24,1.60
2014,10,21,17,25,3.20
2014,10,21,17,26,1.60
2014,10,21,17,27,4.80
2014,10,21,17,28,4.80
2014,10,21,17,29,3.20
2014,10,21,17,30,3.20
2014,10,21,17,31,3.20
2014,10,21,17,32,3.20
2014,10,21,17,33,3.20
2014,10,21,17,34,3.20
2014,10,21,17,35,3.20
2014,10,21,17,36,3.20
2014,10,21,17,37,3.20
2014,10,21,17,38,3.20
2014,10,21,17,39,3.20
2014,10,21,17,40,3.20
2014,10,21,17,41,3.20
2014,10,21,17,42,1.60
2014,10,21,17,43,1.60
2014,10,21,17,44,1.60
2014,10,21,17,45,1.60
2014,10,21,17,46,1.60
2014,10,21,17,47,1.60
2014,10,21,17,48,1.60
2014,10,21,17,50,1.60
2014,10,21,17,51,4.80
2014,10,21,17,52,4.80
2014,10,21,17,53,4.80
2014,10,21,17,54,3.20
2014,10,21,17,55,6.40
2014,10,21,17,56,6.40
2014,10,21,17,57,4.80
2014,10,21,17,58,8.10
2014,10,21,17,59,6.40
2014,10,21,18,00,6.40
2014,10,21,18,01,6.40
2014,10,21,18,02,1.60
2014,10,21,18,03,4.80
2014,10,21,18,04,4.80
2014,10,21,18,05,3.20
2014,10,21,18,06,3.20
2014,10,21,18,07,4.80
2014,10,21,18,08,3.20
2014,10,21,18,09,1.60
2014,10,21,18,10,1.60
2014,10,21,18,11,3.20
2014,10,21,18,12,1.60
2014,10,21,18,13,3.20
2014,10,21,18,14,1.60
2014,10,21,18,15,3.20
2014,10,21,18,16,3.20
2014,10,21,18,17,3.20
2014,10,21,18,18,3.20
2014,10,21,18,19,3.20
2014,10,21,18,20,3.20
2014,10,21,18,21,3.20
2014,10,21,18,22,4.80
2014,10,21,18,23,4.80
2014,10,21,18,24,4.80
2014,10,21,18,25,4.80
2014,10,21,18,26,3.20
2014,10,21,18,27,4.80
2014,10,21,18,28,3.20
2014,10,21,18,29,4.80
2014,10,21,18,30,4.80
2014,10,21,18,31,1.60
2014,10,21,18,32,1.60
2014,10,21,18,33,1.60
2014,10,21,18,34,1.60
2014,10,21,18,35,1.60
2014,10,21,18,36,3.20
2014,10,21,18,37,3.20
2014,10,21,18,38,3.20
2014,10,21,18,39,3.20
2014,10,21,18,40,3.20
2014,10,21,18,41,4.80
2014,10,21,18,42,3.20
2014,10,21,18,43,1.60
2014,10,21,18,44,1.60
2014,10,21,18,45,1.60
2014,10,21,18,46,3.20
2014,10,21,18,47,3.20
2014,10,21,18,48,1.60
2014,10,21,18,49,3.20
2014,10,21,18,50,3.20
2014,10,21,18,51,3.20
2014,10,21,18,52,1.60
2014,10,21,18,53,1.60
2014,10,21,18,54,1.60
2014,10,21,18,55,3.20
2014,10,21,18,56,4.80
2014,10,21,18,57,6.40
2014,10,21,18,58,4.80
2014,10,21,18,59,3.20
2014,10,21,19,00,3.20
2014,10,21,19,01,3.20
2014,10,21,19,02,3.20
2014,10,21,19,03,3.20
2014,10,21,19,04,1.60
2014,10,21,19,05,3.20
2014,10,21,19,06,1.60
2014,10,21,19,07,1.60
2014,10,21,19,08,3.20
2014,10,21,19,09,4.80
2014,10,21,19,10,3.20
2014,10,21,19,11,4.80
2014,10,21,19,12,4.80
2014,10,21,19,13,3.20
2014,10,21,19,14,3.20
2014,10,21,19,15,1.60
2014,10,21,19,16,1.60
2014,10,21,19,17,8.10
2014,10,21,19,18,6.40
2014,10,21,19,19,8.10
2014,10,21,19,20,8.10
2014,10,21,19,21,6.40
2014,10,21,19,22,4.80
2014,10,21,19,23,3.20
2014,10,21,19,24,3.20
2014,10,21,19,25,3.20
2014,10,21,19,26,4.80
2014,10,21,19,27,11.30
2014,10,21,19,28,11.30
2014,10,21,19,29,17.70
2014,10,21,19,30,9.60
2014,10,21,19,31,9.60
2014,10,21,19,32,4.80
2014,10,21,19,33,4.80
2014,10,21,19,34,6.40
2014,10,21,19,35,6.40
2014,10,21,19,36,4.80
2014,10,21,19,37,4.80
2014,10,21,19,38,16.10
2014,10,21,19,39,11.30
2014,10,21,19,40,12.90
2014,10,21,19,41,9.60
2014,10,21,19,42,17.70
2014,10,21,19,43,22.50
2014,10,21,19,44,11.30
2014,10,21,19,45,9.60
2014,10,21,19,46,4.80
2014,10,21,19,47,8.10
2014,10,21,19,48,11.30
2014,10,21,19,49,9.60
2014,10,21,19,50,17.70
2014,10,21,19,51,9.60
2014,10,21,19,52,8.10
2014,10,21,19,53,14.50
2014,10,21,19,54,9.60
2014,10,21,19,55,4.80
2014,10,21,19,56,11.30
2014,10,21,19,57,9.60
2014,10,21,19,58,6.40
2014,10,21,19,59,14.50
2014,10,21,20,00,9.60
2014,10,21,20,01,8.10
2014,10,21,20,02,9.60
2014,10,21,20,03,11.30
2014,10,21,20,04,6.40
2014,10,21,20,05,8.10
2014,10,21,20,06,4.80
2014,10,21,20,07,6.40
2014,10,21,20,08,3.20
2014,10,21,20,09,3.20
2014,10,21,20,10,4.80
2014,10,21,20,11,9.60
2014,10,21,20,12,4.80
2014,10,21,20,13,6.40
2014,10,21,20,14,8.10
2014,10,21,20,15,8.10
2014,10,21,20,16,4.80
2014,10,21,20,17,20.90
2014,10,21,20,18,11.30
2014,10,21,20,19,14.50
2014,10,21,20,20,14.50
2014,10,21,20,21,19.30
2014,10,21,20,22,17.70
2014,10,21,20,23,11.30
2014,10,21,20,24,9.60
2014,10,21,20,25,11.30
2014,10,21,20,26,6.40
2014,10,21,20,27,3.20
2014,10,21,20,28,6.40
2014,10,21,20,29,9.60
2014,10,21,20,30,6.40
2014,10,21,20,31,4.80
2014,10,21,20,32,4.80
2014,10,21,20,33,4.80
2014,10,21,20,34,3.20
2014,10,21,20,35,3.20
2014,10,21,20,36,9.60
2014,10,21,20,37,9.60
2014,10,21,20,38,6.40
2014,10,21,20,39,6.40
2014,10,21,20,40,6.40
2014,10,21,20,41,4.80
2014,10,21,20,42,3.20
2014,10,21,20,43,3.20
2014,10,21,20,44,4.80
2014,10,21,20,45,6.40
2014,10,21,20,46,6.40
2014,10,21,20,47,4.80
2014,10,21,20,48,6.40
2014,10,21,20,49,11.30
2014,10,21,20,50,6.40
2014,10,21,20,51,4.80
2014,10,21,20,52,9.60
2014,10,21,20,53,9.60
2014,10,21,20,54,6.40
2014,10,21,20,55,9.60
2014,10,21,20,56,16.10
2014,10,21,20,57,8.10
2014,10,21,20,58,8.10
2014,10,21,20,59,4.80
2014,10,21,21,00,1.60
2014,10,21,21,01,8.10
2014,10,21,21,02,8.10
2014,10,21,21,03,6.40
2014,10,21,21,04,3.20
2014,10,21,21,05,8.10
2014,10,21,21,06,9.60
2014,10,21,21,07,6.40
2014,10,21,21,08,8.10
2014,10,21,21,09,4.80
2014,10,21,21,10,4.80
2014,10,21,21,11,16.10
2014,10,21,21,12,9.60
2014,10,21,21,13,11.30
2014,10,21,21,14,17.70
2014,10,21,21,15,11.30
2014,10,21,21,16,8.10
2014,10,21,21,17,9.60
2014,10,21,21,18,9.60
2014,10,21,21,19,8.10
2014,10,21,21,20,11.30
2014,10,21,21,21,8.10
2014,10,21,21,22,8.10
2014,10,21,21,23,4.80
2014,10,21,21,24,4.80
2014,10,21,21,25,4.80
2014,10,21,21,26,6.40
2014,10,21,21,27,6.40
2014,10,21,21,28,14.50
2014,10,21,21,29,8.10
2014,10,21,21,30,6.40
2014,10,21,21,31,9.60
2014,10,21,21,32,9.60
2014,10,21,21,33,4.80
2014,10,21,21,34,9.60
2014,10,21,21,35,9.60
2014,10,21,21,36,3.20
2014,10,21,21,37,4.80
2014,10,21,21,38,8.10
2014,10,21,21,39,4.80
2014,10,21,21,40,6.40
2014,10,21,21,41,8.10
2014,10,21,21,42,11.30
2014,10,21,21,43,14.50
2014,10,21,21,44,16.10
2014,10,21,21,45,24.20
2014,10,21,21,46,16.10
2014,10,21,21,47,11.30
2014,10,21,21,48,11.30
2014,10,21,21,49,17.70
2014,10,21,21,50,16.10
2014,10,21,21,51,9.60
2014,10,21,21,52,29.00
2014,10,21,21,53,27.40
2014,10,21,21,54,24.20
2014,10,21,21,55,12.90
2014,10,21,21,56,17.70
2014,10,21,21,57,30.60
2014,10,21,21,58,14.50
2014,10,21,21,59,30.60
2014,10,21,22,00,20.90
2014,10,21,22,01,16.10
2014,10,21,22,02,29.00
2014,10,21,22,03,19.30
2014,10,21,22,04,24.20
2014,10,21,22,05,24.20
2014,10,21,22,06,27.40
2014,10,21,22,07,27.40
2014,10,21,22,08,19.30
2014,10,21,22,09,32.20
2014,10,21,22,10,29.00
2014,10,21,22,11,30.60
2014,10,21,22,12,32.20
2014,10,21,22,13,37.00
2014,10,21,22,14,22.50
2014,10,21,22,15,43.50
2014,10,21,22,16,37.00
2014,10,21,22,17,20.90
2014,10,21,22,18,35.40
2014,10,21,22,19,27.40
2014,10,21,22,20,33.80
2014,10,21,22,21,29.00
2014,10,21,22,22,22.50
2014,10,21,22,23,41.80
2014,10,21,22,24,33.80
2014,10,21,22,25,32.20
2014,10,21,22,26,27.40
2014,10,21,22,27,35.40
2014,10,21,22,28,32.20
2014,10,21,22,29,24.20
2014,10,21,22,30,20.90
2014,10,21,22,31,38.60
2014,10,21,22,32,27.40